Weather History for Air Force Academy, CO

Change the Weather History Date:

Friday, January 4, 2013

  Actual Average Record
Temperature  
Mean Temperature 26 °F -  
Max Temperature 47 °F 42 °F 68 °F (2001)
Min Temperature 6 °F 20 °F -2 °F (2014)
Degree Days  
Heating Degree Days 38    
Moisture  
Dew Point 1 °F    
Average Humidity 42    
Maximum Humidity 66    
Minimum Humidity 17    
Precipitation  
Precipitation 0.00 in - - ()
Sea Level Pressure  
Sea Level Pressure 30.25 in    
Wind  
Wind Speed 7 mph (NNE)    
Max Wind Speed 12 mph    
Max Gust Speed -    
Visibility 10 miles    
Events      
Averages and records for this station are not official NWS values.
T = Trace of Precipitation, MM = Missing Value Source: NWS Daily Summary

Daily Weather History Graph

Daily Weather History Graph

Search for Another Location

Airport:

Trip Planner

Search our weather history database for the weather conditions in past years. The results will help you decide how hot, cold, wet, or windy it might be!

Date:

Astronomy

Jan. 04, 2013 Rise Set
Actual Time 7:18 AM MST 4:50 PM MST
Civil Twilight 6:48 AM MST 5:20 PM MST
Nautical Twilight 6:15 AM MST 5:53 PM MST
Astronomical Twilight 5:42 AM MST 6:26 PM MST
Moon No Moon Rise 11:06 AM MST (1/4)
Length of Visible Light 10h 31m
Length of Day
9h 32m
Waning Gibbous, 54% of the Moon is Illuminated
Jan 4
Waning Gibbous
Jan 4
Last Quarter
Jan 11
New
Jan 18
First Quarter
Jan 26
Full

Hourly Weather History & Observations

Time (MST) Temp. Windchill Dew Point Humidity Pressure Visibility Wind Dir Wind Speed Gust Speed Precip Events Conditions
12:58 AM 10.2 °F -0.6 °F -7.8 °F 44% 30.33 in 10.0 mi North 6.9 mph - N/A   Clear
1:58 AM 10.6 °F 2.5 °F -8.3 °F 42% 30.32 in 10.0 mi NE 4.6 mph - N/A   Clear
2:58 AM 6.6 °F -0.3 °F -6.2 °F 56% 30.34 in 10.0 mi NNE 3.5 mph - N/A   Clear
3:58 AM 7.0 °F -8.3 °F -6.7 °F 54% 30.33 in 10.0 mi North 11.5 mph - N/A   Clear
4:58 AM 9.3 °F - -7.4 °F 47% 30.35 in 10.0 mi NNE 2.3 mph - N/A   Clear
5:58 AM 8.1 °F -5.3 °F -6.2 °F 52% 30.39 in 10.0 mi NNE 9.2 mph - N/A   Clear
6:58 AM 7.3 °F -7.9 °F -5.4 °F 56% 30.43 in 10.0 mi North 11.5 mph - N/A   Clear
7:58 AM 6.4 °F -8.2 °F -4.5 °F 61% 30.45 in 10.0 mi North 10.4 mph - N/A   Clear
8:58 AM 19.0 °F 6.8 °F 0.1 °F 44% 30.38 in 10.0 mi North 11.5 mph - N/A   Clear
9:58 AM 32.7 °F 29.6 °F 2.1 °F 27% 30.34 in 10.0 mi North 3.5 mph - N/A   Clear
10:58 AM 42.1 °F 37.1 °F -0.6 °F 17% 30.26 in 10.0 mi North 8.1 mph - N/A   Clear
11:58 AM 44.6 °F 39.2 °F 3.2 °F 18% 30.19 in 10.0 mi NNE 10.4 mph - N/A   Clear
12:58 PM 45.3 °F 40.1 °F 3.9 °F 18% 30.13 in 10.0 mi North 10.4 mph - N/A   Clear
1:58 PM 45.9 °F 41.2 °F 5.4 °F 19% 30.09 in 10.0 mi NNE 9.2 mph - N/A   Clear
2:58 PM 47.5 °F - 7.3 °F 20% 30.09 in 10.0 mi North 8.1 mph - N/A   Clear
3:58 PM 42.1 °F 36.6 °F 6.4 °F 23% 30.13 in 10.0 mi ENE 9.2 mph - N/A   Clear
4:58 PM 34.7 °F 30.6 °F 7.9 °F 33% 30.17 in 10.0 mi NW 4.6 mph - N/A   Clear
5:58 PM 31.8 °F 27.3 °F -0.9 °F 25% 30.20 in 10.0 mi SSE 4.6 mph - N/A   Clear
6:58 PM 20.8 °F 11.2 °F 6.4 °F 54% 30.26 in 10.0 mi North 8.1 mph - N/A   Clear
7:58 PM 18.3 °F 9.1 °F 6.6 °F 60% 30.26 in 10.0 mi NNE 6.9 mph - N/A   Clear
8:58 PM 17.8 °F 7.5 °F 5.0 °F 57% 30.18 in 10.0 mi NNE 8.1 mph - N/A   Clear
9:58 PM 14.0 °F 3.9 °F 3.9 °F 64% 30.15 in 10.0 mi North 6.9 mph - N/A   Clear
10:58 PM 15.4 °F 2.3 °F 5.9 °F 66% 30.08 in 10.0 mi North 11.5 mph - N/A   Clear
11:58 PM 19.2 °F 7.7 °F 6.4 °F 58% 30.06 in 10.0 mi North 10.4 mph - N/A   Clear